• In Czech Republic
  • List of Countries
  • For 7 days
  • Water Temperature
  • Satellite Maps
  • Weather Map
  • Weather Widgets
  • user-avatar
    Login

    Hourly Weather Wiktoria

    Today, 22 October, Sunday

    Time Temperature Precipitation Wind Pressure Humidity
    00:00 +7°C° 0 mm 4 mps 752 mmHg 86%
    01:00 +6°C° 0 mm 4 mps 752 mmHg 89%
    02:00 +7°C° 0 mm 3 mps 751 mmHg 91%
    03:00 +7°C° 0 mm 3 mps 751 mmHg 92%
    04:00 +6°C° 0 mm 2 mps 751 mmHg 94%
    05:00 +7°C° 0 mm 3 mps 751 mmHg 91%
    06:00 +9°C° 0 mm 3 mps 751 mmHg 87%
    07:00 +10°C° 0 mm 4 mps 751 mmHg 83%
    08:00 +12°C° 0 mm 4 mps 751 mmHg 77%
    09:00 +14°C° 0 mm 4 mps 751 mmHg 70%
    10:00 +17°C° 0 mm 4 mps 751 mmHg 63%
    11:00 +18°C° 0 mm 4 mps 751 mmHg 62%
    12:00 +17°C° 0 mm 5 mps 750 mmHg 61%
    13:00 +19°C° 0 mm 5 mps 750 mmHg 60%
    14:00 +19°C° 0.1 mm 5 mps 750 mmHg 61%
    15:00 +19°C° 0.1 mm 5 mps 750 mmHg 61%
    16:00 +17°C° 0 mm 5 mps 749 mmHg 63%
    17:00 +17°C° 0 mm 4 mps 750 mmHg 70%
    18:00 +14°C° 0 mm 4 mps 750 mmHg 76%
    19:00 +12°C° 0 mm 3 mps 750 mmHg 83%
    20:00 +11°C° 0 mm 3 mps 751 mmHg 86%
    21:00 +10°C° 0 mm 3 mps 751 mmHg 90%
    22:00 +9°C° 0 mm 3 mps 751 mmHg 93%
    23:00 +9°C° 0 mm 3 mps 751 mmHg 94%

    Tomorrow, 23 October, Monday

    Time Temperature Precipitation Wind Pressure Humidity
    00:00 +9°C° 0 mm 3 mps 751 mmHg 94%
    01:00 +8°C° 0 mm 2 mps 751 mmHg 95%
    02:00 +8°C° 0 mm 2 mps 751 mmHg 95%
    03:00 +8°C° 0 mm 2 mps 751 mmHg 95%
    04:00 +8°C° 0 mm 2 mps 751 mmHg 96%
    05:00 +9°C° 0 mm 2 mps 751 mmHg 93%
    06:00 +10°C° 0 mm 2 mps 752 mmHg 91%
    07:00 +12°C° 0 mm 2 mps 752 mmHg 89%
    08:00 +14°C° 0 mm 2 mps 752 mmHg 80%
    09:00 +16°C° 0 mm 2 mps 752 mmHg 71%
    10:00 +19°C° 0 mm 1 mps 752 mmHg 62%
    11:00 +20°C° 0 mm 1 mps 751 mmHg 58%
    12:00 +22°C° 0 mm 1 mps 751 mmHg 55%
    13:00 +23°C° 0 mm 1 mps 751 mmHg 52%
    14:00 +23°C° 0 mm 1 mps 750 mmHg 52%
    15:00 +23°C° 0 mm 1 mps 750 mmHg 52%
    16:00 +23°C° 0 mm 2 mps 750 mmHg 52%
    17:00 +21°C° 0 mm 1 mps 750 mmHg 59%
    18:00 +19°C° 0 mm 1 mps 750 mmHg 67%
    19:00 +16°C° 0 mm 1 mps 750 mmHg 74%
    20:00 +15°C° 0 mm 1 mps 751 mmHg 78%
    21:00 +14°C° 0 mm 1 mps 751 mmHg 81%
    22:00 +13°C° 0 mm 2 mps 751 mmHg 84%
    23:00 +13°C° 0 mm 2 mps 751 mmHg 86%

    Day after tomorrow, 24 October, Tuesday

    Time Temperature Precipitation Wind Pressure Humidity
    00:00 +12°C° 0 mm 1 mps 751 mmHg 88%
    01:00 +12°C° 0 mm 1 mps 751 mmHg 89%
    02:00 +12°C° 0 mm 1 mps 751 mmHg 90%
    03:00 +12°C° 0 mm 1 mps 751 mmHg 90%
    04:00 +12°C° 0 mm 1 mps 750 mmHg 90%
    05:00 +12°C° 0 mm 1 mps 751 mmHg 88%
    06:00 +13°C° 0 mm 1 mps 751 mmHg 85%
    07:00 +14°C° 0 mm 1 mps 751 mmHg 82%
    08:00 +16°C° 0 mm 2 mps 751 mmHg 75%
    09:00 +19°C° 0 mm 2 mps 751 mmHg 67%
    10:00 +21°C° 0 mm 2 mps 751 mmHg 59%
    11:00 +23°C° 0 mm 2 mps 751 mmHg 57%
    12:00 +24°C° 0 mm 2 mps 750 mmHg 54%
    13:00 +24°C° 0 mm 2 mps 750 mmHg 51%
    14:00 +24°C° 0.2 mm 2 mps 750 mmHg 53%
    15:00 +25°C° 0.2 mm 2 mps 749 mmHg 55%
    16:00 +25°C° 0.2 mm 1 mps 749 mmHg 57%
    17:00 +23°C° 0.3 mm 1 mps 749 mmHg 62%
    18:00 +20°C° 0.3 mm 2 mps 749 mmHg 68%
    19:00 +18°C° 0.3 mm 2 mps 749 mmHg 74%
    20:00 +18°C° 0.6 mm 1 mps 749 mmHg 80%
    21:00 +16°C° 0.6 mm 1 mps 749 mmHg 86%
    22:00 +16°C° 0.6 mm 1 mps 749 mmHg 91%
    23:00 +15°C° 0.4 mm 1 mps 749 mmHg 93%

    25 October, Wednesday

    Time Temperature Precipitation Wind Pressure Humidity
    00:00 +15°C° 0.4 mm 2 mps 748 mmHg 94%
    01:00 +15°C° 0.4 mm 2 mps 748 mmHg 95%
    02:00 +15°C° 0 mm 2 mps 747 mmHg 95%
    03:00 +14°C° 0 mm 2 mps 747 mmHg 95%
    04:00 +14°C° 0 mm 2 mps 747 mmHg 95%
    05:00 +13°C° 0 mm 3 mps 746 mmHg 93%
    06:00 +14°C° 0 mm 3 mps 746 mmHg 92%
    07:00 +16°C° 0 mm 3 mps 746 mmHg 91%
    08:00 +18°C° 0 mm 4 mps 746 mmHg 82%
    09:00 +20°C° 0 mm 4 mps 745 mmHg 73%
    10:00 +22°C° 0 mm 4 mps 745 mmHg 64%
    11:00 +23°C° 0 mm 4 mps 744 mmHg 58%
    12:00 +26°C° 0 mm 3 mps 744 mmHg 52%
    13:00 +28°C° 0 mm 3 mps 743 mmHg 46%
    14:00 +27°C° 0 mm 3 mps 742 mmHg 49%
    15:00 +27°C° 0 mm 4 mps 741 mmHg 53%
    16:00 +27°C° 0 mm 4 mps 741 mmHg 56%
    17:00 +23°C° 0.1 mm 5 mps 741 mmHg 63%
    18:00 +21°C° 0.1 mm 5 mps 741 mmHg 70%
    19:00 +19°C° 0.1 mm 6 mps 742 mmHg 78%
    20:00 +17°C° 0.1 mm 6 mps 742 mmHg 80%
    21:00 +16°C° 0.1 mm 5 mps 742 mmHg 83%
    22:00 +15°C° 0.1 mm 5 mps 743 mmHg 85%
    23:00 +15°C° 0 mm 5 mps 743 mmHg 86%

    26 October, Thursday

    Time Temperature Precipitation Wind Pressure Humidity
    00:00 +14°C° 0 mm 5 mps 743 mmHg 87%
    01:00 +13°C° 0 mm 5 mps 743 mmHg 88%
    02:00 +13°C° 0 mm 5 mps 743 mmHg 88%
    03:00 +13°C° 0 mm 5 mps 743 mmHg 89%
    04:00 +12°C° 0 mm 5 mps 743 mmHg 89%
    05:00 +13°C° 0 mm 5 mps 744 mmHg 86%
    06:00 +13°C° 0 mm 6 mps 745 mmHg 84%
    07:00 +14°C° 0 mm 6 mps 745 mmHg 81%
    08:00 +15°C° 0 mm 6 mps 745 mmHg 74%
    09:00 +17°C° 0 mm 7 mps 746 mmHg 68%
    10:00 +20°C° 0 mm 7 mps 746 mmHg 61%
    11:00 +21°C° 0 mm 7 mps 746 mmHg 57%
    12:00 +21°C° 0 mm 7 mps 745 mmHg 54%
    13:00 +22°C° 0 mm 6 mps 745 mmHg 50%
    14:00 +22°C° 0 mm 6 mps 745 mmHg 50%
    15:00 +22°C° 0 mm 6 mps 745 mmHg 50%
    16:00 +22°C° 0 mm 6 mps 745 mmHg 49%
    17:00 +20°C° 0 mm 5 mps 746 mmHg 52%
    18:00 +17°C° 0 mm 5 mps 746 mmHg 55%
    19:00 +15°C° 0 mm 4 mps 747 mmHg 58%
    20:00 +14°C° 0 mm 4 mps 747 mmHg 61%
    21:00 +12°C° 0 mm 4 mps 748 mmHg 65%
    22:00 +11°C° 0 mm 3 mps 749 mmHg 68%
    23:00 +10°C° 0 mm 3 mps 748 mmHg 73%

    27 October, Friday

    Time Temperature Precipitation Wind Pressure Humidity
    00:00 +9°C° 0 mm 2 mps 748 mmHg 78%
    01:00 +9°C° 0 mm 2 mps 748 mmHg 83%
    02:00 +8°C° 0 mm 2 mps 748 mmHg 85%
    03:00 +8°C° 0 mm 2 mps 748 mmHg 88%
    04:00 +9°C° 0 mm 1 mps 747 mmHg 90%
    05:00 +9°C° 0 mm 2 mps 747 mmHg 86%
    06:00 +10°C° 0 mm 2 mps 747 mmHg 83%
    07:00 +13°C° 0 mm 2 mps 748 mmHg 79%
    08:00 +14°C° 0 mm 3 mps 747 mmHg 72%
    09:00 +18°C° 0 mm 4 mps 747 mmHg 65%
    10:00 +21°C° 0 mm 4 mps 747 mmHg 58%
    11:00 +22°C° 0 mm 4 mps 746 mmHg 53%
    12:00 +25°C° 0 mm 5 mps 745 mmHg 47%
    13:00 +26°C° 0 mm 5 mps 745 mmHg 42%
    14:00 +27°C° 0 mm 4 mps 744 mmHg 41%
    15:00 +27°C° 0 mm 4 mps 744 mmHg 39%
    16:00 +28°C° 0 mm 4 mps 743 mmHg 38%
    17:00 +25°C° 0 mm 3 mps 744 mmHg 41%
    18:00 +22°C° 0 mm 3 mps 744 mmHg 44%
    19:00 +20°C° 0 mm 2 mps 744 mmHg 47%
    20:00 +20°C° 0 mm 2 mps 744 mmHg 45%
    21:00 +19°C° 0 mm 3 mps 744 mmHg 43%
    22:00 +19°C° 0 mm 3 mps 744 mmHg 41%
    23:00 +19°C° 0 mm 3 mps 743 mmHg 40%
    Show more